Retour au catalogue

CZ-6A DEB

ActifPO
NORAD 60688·DEBRIS·🇨🇳 China

Lancé Aug 6, 2024 depuis Taiyuan Satellite Launch Center

Loading…

Prochains Passages (prochaines 24 heures)

TLE

FraisSource: Space-Track

Époque: Sep 14, 2026, 10:53 UTC

1 60688U 24140CR  26257.45377748  .00000838  00000-0  34465-3 0  9990
2 60688  88.9961 263.9468 0027400 265.8265  93.9796 14.25931179109090

Suivez CZ-6A DEB en temps réel avec AllMySat

Download on the App Store